Regional Weather Roundup
Issued by NWS Charleston, SC

Current Version | Previous Version | Graphics & Text | Print | Product List | Glossary On
Versions: 1 2 3 4 5 6 7 8 9 10 11 12 13 14 15 16 17 18 19 20 21 22 23 24 25 26 27 28 29 30 31 32 33 34 35 36 37 38 39 40 41 42 43 44 45 46 47 48 49 50
000 ASUS42 KCHS 112111 RWRCHS REGIONAL WEATHER ROUNDUP NATIONAL WEATHER SERVICE CHARLESTON SC 400 PM EST MON DEC 11 2017 NOTE: "FAIR" INDICATES FEW OR NO CLOUDS BELOW 12,000 FEET WITH NO SIGNIFICANT WEATHER AND/OR OBSTRUCTIONS TO VISIBILITY. NOT ALL STATIONS ARE QUALITY CONTROLLED. USE DATA WITH CAUTION... ESPECIALLY DEWPOINT OBSERVATIONS. SCZ027-030-031-034>040-042>050-112200- ...SOUTHEAST SOUTH CAROLINA... CITY SKY/WX TMP DP RH WIND PRES REMARKS N CHARLESTON SUNNY 57 32 38 W6 30.06F WATERFRONT PRK N/A 57 34 41 VRB3 29.92F JOHNS ISLAND FAIR 57 34 41 SW6 30.07S PINOPOLIS N/A 54 37 54 VRB3 29.99F MONCKS CORNER FAIR 55 28 35 CALM 30.05F SUMMERVILLE FAIR 55 32 41 CALM 30.07F BEAUFORT MCAS SUNNY 59 36 42 SW6 30.08S BEAUFORT ARPT FAIR 57 36 44 SW3 30.07F HAZE HILTON HEAD IS SUNNY 59 36 41 SW9 30.09F WALTERBORO CLEAR 57 34 41 W5 30.07S ALLENDALE FAIR 59 34 38 VRB5 30.05F ...SOUTHERN MIDLANDS AND PEE DEE... CITY SKY/WX TMP DP RH WIND PRES REMARKS GEORGETOWN FAIR 54 32 43 CALM 30.07S KINGSTREE FAIR 54 27 35 CALM 30.05F ORANGEBURG SUNNY 57 32 38 SW7 30.04F BARNWELL N/A 61 36 39 SW7 30.05F AIKEN FAIR 55 32 41 SW8 30.07S MANNING FAIR N/A N/A N/A MISG 30.05F COLUMBIA SUNNY 59 32 36 S8 30.03F SUMTER SUNNY 61 28 29 S9 30.05S FLORENCE SUNNY 55 28 35 S5 30.04F MYRTLE BEACH SUNNY 51 37 58 S7 30.07F N MYRTLE BEACH SUNNY 51 37 58 S7 30.05F $$ GAZ063-065-086>088-099>101-113>116-118-119-134>141-150-112200- ...SOUTHEAST GEORGIA... CITY SKY/WX TMP DP RH WIND PRES REMARKS SAVANNAH ARPT MOSUNNY 61 33 35 W10 30.09S HUNTER AAF SUNNY 61 34 36 SW6 30.06F FORT STEWART SUNNY 61 33 35 W5 30.07F STATESBORO SUNNY 61 29 29 W7 30.08S SYLVANIA CLEAR 60 37 42 W7 30.08S CLAXTON FAIR 63 36 36 SW5 30.09S ...CSRA...CENTRAL AND FAR SOUTHEAST GEORGIA... CITY SKY/WX TMP DP RH WIND PRES REMARKS THOMSON SUNNY 60 33 35 NW8 30.09S AUGUSTA-BUSH SUNNY 61 32 33 SW8 30.04F AUGUSTA-DANIEL SUNNY 62 32 32 SW9 30.04F SWAINSBORO FAIR 61 34 36 NW6 30.08S VIDALIA SUNNY 63 36 36 SW9 30.09S EASTMAN FAIR 64 15 15 W9 30.11S HAZLEHURST FAIR 63 16 15 SW8 30.09S ALMA SUNNY 62 34 35 SW9 30.10S WAYCROSS SUNNY 63 28 26 W12 30.11S JESUP FAIR 63 34 34 CALM 30.11S BAXLEY FAIR 59 34 38 SW6 30.10S BRUNSWICK SUNNY 61 32 33 SW8 30.11F SAINT SIMONS SUNNY 61 35 37 SW9 30.10F $$ SCZ027-028-034-036>038-045-046-048>050-GAZ119-141-112200- ...LAKE AND SUPPLEMENTAL COASTAL OBSERVATIONS... STATION/POSITION TIME TEMP WIND PRES WAVE SWELL AIR SEA DIR/SP/G HT/PER HT/PER/DIR (UTC) (F) (DEG/KT/KT) (MB) (FT/S) (FT/S/D) WINYAH BAY NOT AVBL LAKE MURRAY 2020 60 180/ 2/ 3 1016.6 ACE BASIN NERRS NOT AVBL FORT PULASKI 2042 59 55 250/ 5/ 7 1018.9F SAPELO ISLAND NOT AVBL $$ ANZ835-935-AMZ111-154-330-350-352-354-370-450-454-472-112200- ...C-MAN AND BUOY OBSERVATIONS... STATION/POSITION TIME TEMP WIND PRES WAVE SWELL AIR SEA DIR/SP/G HT/PER HT/PER/DIR (UTC) (F) (DEG/KT/KT) (MB) (FT/S) (FT/S/D) BUOY 41004 2050 74 260/ 10/ 14 1018.1F 3/ 5 2/230/ 5 BUOY 41008 2050 56 62 190/ 12/ 14 1019.2F 1/10 2/ 70/10 FOLLY BEACH CMAN 2000 56 280/ 3/ 5 1019.0F CAPERS NEARSHORE 2008 50 58 220/ 8/ 12 1018.1F FRIPP NEARSHORE 2008 53 56 220/ 8/ 12 1018.2F STATION/POSITION TIME TEMP WIND PRES WAVE SWELL AIR SEA DIR/SP/G HT/PER HT/PER/DIR (UTC) (F) (DEG/KT/KT) (MB) (FT/S) (FT/S/D) 5E ST. MARYS GA 2100 60 N/A 1/ 9 FRYING PAN BUOY 2050 53 61 280/ 8/ 10 1017.7F 3/ 5 3/230/ 5 BUOY 41025 2050 52 75 290/ 6/ 10 1018.2F 3/ 6 3/210/ 6 CAPE LOOKOUT NC 2000 240/ 3/ 4 1018.2F BUOY 41002 1950 66 76 260/ 10/ 14 1018.2 4/ 8 3/ 70/ 8 BUOY 41010 NOT AVBL ST AUGUSTINE FL 2100 60 62 220/ 5/ 8 1020.9F $$

USA.gov is the U.S. government's official web portal to all federal, state and local government web resources and services.